Location: Fluertsh�userhof
(48.7537°N, 10.3850°E)
Time: 02:21:20
(UTC+00:00)

Cosmos 1626 - Pass Details

Date: 22 January 2021
Orbit: 490 x 493 km, 82.5° (Epoch: 07 March)

Event Time Altitude Azimuth Distance (km) Brightness Sun altitude
Rises 17:28:04 0° 227° (SW) 2,568 6.9 -14.2°
Reaches altitude 10° 17:30:41 10° 247° (WSW) 1,691 6.2 -14.6°
Maximum altitude 17:33:17 18° 292° (WNW) 1,274 4.9 -15.0°
Drops below altitude 10° 17:35:54 10° 337° (NNW) 1,699 5.0 -15.5°
Sets 17:38:33 0° 356° (N) 2,587 5.7 -15.9°
